Hourly Data Report for October 06, 2016

CORAL HARBOUR A
NUNAVUT

64°11'36.000" N
83°21'34.000" W
62.20 m
2301002
71915
YZS

Download Data

Hourly Data (October 2016)
Hourly Data Report for October 6, 2016
TIME
LST
Temp Definition
°C
Dew Point Definition
°C
Rel Hum Definition
%
Precip. Amount Definition
mm

Wind Dir Definition
10's deg

Wind Spd Definition
km/h
Visibility Definition
km
Stn Press Definition
kPa
Hmdx Definition


Wind Chill Definition


Weather Definition


00:00 -4.0 -6.5 83   33 8 24.1 101.44   -7 LegendNANA
01:00 -4.0 -6.8 81   34 32 24.1 101.40   -12 Mainly Clear
02:00 -4.3 -7.1 81   33 23 24.1 101.39   -11 LegendNANA
03:00 -3.5 -6.0 83   25 6 24.1 101.42   -6 LegendNANA
04:00 -2.8 -5.6 81   36 22 24.1 101.42   -9 Mostly Cloudy
05:00 -2.7 -5.9 79   35 30 24.1 101.36   -10 LegendNANA
06:00 -2.5 -5.3 81   34 35 24.1 101.32   -10 LegendNANA
07:00 -2.2 -5.0 81   36 37 24.1 101.28   -10 Mostly Cloudy
08:00 -2.4 -4.7 84   35 25 24.1 101.27   -9 LegendNANA
09:00 -1.2 -3.9 82   35 32 24.1 101.24   -8 LegendNANA
10:00 0.0 -3.2 79   35 32 24.1 101.20   -7 Mainly Clear
11:00 0.4 -3.5 75   36 14 24.1 101.25     LegendNANA
12:00 1.2 -3.1 73   36 20 24.1 101.21     LegendNANA
13:00 1.0 -3.5 72   35 18 24.1 101.24     Mostly Cloudy
14:00 0.8 -3.7 72   34 11 24.1 101.24     LegendNANA
15:00 -0.2 -3.4 79   34 26 24.1 101.27   -6 LegendNANA
16:00 -0.6 -4.1 77   36 16 24.1 101.30   -5 Mostly Cloudy
17:00 -0.7 -4.1 78   35 21 24.1 101.32   -6 LegendNANA
18:00 -1.2 -4.2 80   34 21 24.1 101.36   -7 LegendNANA
19:00 -1.6 -4.3 82   35 14 24.1 101.40   -6 Mostly Cloudy
20:00 -1.9 -4.3 84   33 16 24.1 101.42   -7 LegendNANA
21:00 -1.8 -4.5 82   33 14 24.1 101.45   -6 LegendNANA
22:00 -1.6 -4.0 84   31 7 24.1 101.45   -4 Mostly Cloudy
23:00 -1.8 -3.8 86   30 8 24.1 101.43   -5 LegendNANA

Notes on Data Quality.

Legend

  • E = Estimated
  • M = Missing
  • NA = Not Available*
  • [empty] = Indicates an unobserved value
Date modified: